Location: Firnhaberau
(48.4049°N, 10.8963°E)
Time: 07:25:45
(UTC+00:00)

Cosmos 1408 - Pass Details

Date: 07 June 2020
Orbit: 469 x 495 km, 82.6° (Epoch: 04 July)

Event Time Altitude Azimuth Distance (km) Brightness Sun altitude
Exits shadow 01:49:32 11° 181° (S) 1,597 4.7 -10.9°
Maximum altitude 01:53:00 73° 97° (E) 518 2.7 -10.6°
Drops below altitude 10° 01:56:41 10° 13° (NNE) 1,686 6.5 -10.2°
Sets 01:58:47 0° 12° (NNE) 2,567 7.5 -10.0°
